CW6245 Weather Reports


time (UTC)temp
C
wind
direction
speed
KPH
gust
KPH
rain 1hr
cm
rain 24hr
cm
rain mn
cm
humidity
%
barometer
mb
20260831192230 17 321 8.0 19.3 0.00 0.00 0.00 59 734.2
20260831191730 17 316 4.8 14.5 0.00 0.00 0.00 56 734.2
20260831191230 17 309 3.2 11.3 0.00 0.00 0.00 57 734.2
20260831190736 17 316 3.2 14.5 0.00 0.00 0.00 56 734.2
20260831190233 17 291 3.2 14.5 0.00 0.00 0.00 57 734.2
20260831185730 17 331 4.8 12.9 0.00 0.00 0.00 54 734.2
20260831185230 18 292 4.8 14.5 0.00 0.00 0.00 53 734.2
20260831184730 18 325 0.0 11.3 0.00 0.00 0.00 54 734.2
20260831184230 18 272 0.0 9.7 0.00 0.00 0.00 57 734.2
20260831183730 17 304 1.6 14.5 0.00 0.00 0.00 54 734.2
20260831183230 17 292 1.6 12.9 0.00 0.00 0.00 56 734.2
20260831182730 18 211 4.8 12.9 0.00 0.00 0.00 52 734.2
20260831182230 17 256 1.6 9.7 0.00 0.00 0.00 54 734.2
20260831181733 17 293 3.2 14.5 0.00 0.00 0.00 57 734.2
20260831181230 17 193 1.6 8.0 0.00 0.00 0.00 51 734.2
20260831180730 17 123 0.0 11.3 0.00 0.00 0.00 56 734.2
20260831180231 17 16 0.0 6.4 0.00 0.00 0.00 56 734.2
20260831175730 17 275 3.2 14.5 0.00 0.00 0.00 55 734.2
20260831175230 17 193 1.6 12.9 0.00 0.00 0.00 57 734.2
20260831174733 17 309 1.6 14.5 0.00 0.00 0.00 55 734.2
20260831174230 17 250 1.6 8.0 0.00 0.00 0.00 53 734.2
20260831173730 17 331 1.6 9.7 0.00 0.00 0.00 53 734.2
20260831173230 17 341 1.6 11.3 0.00 0.00 0.00 54 734.2
20260831172730 17 289 1.6 8.0 0.00 0.00 0.00 51 734.2
20260831172230 17 246 1.6 8.0 0.00 0.00 0.00 56 733.8
20260831171735 16 199 1.6 11.3 0.00 0.00 0.00 56 733.8
20260831171230 16 164 0.0 8.0 0.00 0.00 0.00 59 733.8
20260831170733 17 338 3.2 9.7 0.00 0.00 0.00 56 733.8
20260831170230 17 329 4.8 11.3 0.00 0.00 0.00 51 733.8
20260831165730 17 65 1.6 14.5 0.00 0.00 0.00 49 733.8
20260831165233 17 198 1.6 8.0 0.00 0.00 0.00 49 733.8
20260831164730 17 348 0.0 8.0 0.00 0.00 0.00 50 733.8
20260831164233 17 210 1.6 14.5 0.00 0.00 0.00 48 733.8
20260831163730 17 217 3.2 6.4 0.00 0.00 0.00 48 733.8
20260831163235 17 207 1.6 8.0 0.00 0.00 0.00 47 733.8
20260831162730 17 197 4.8 8.0 0.00 0.00 0.00 49 733.8
20260831162233 17 307 3.2 8.0 0.00 0.00 0.00 48 733.8
20260831161730 17 206 1.6 3.2 0.00 0.00 0.00 51 733.8
20260831161233 16 286 0.0 6.4 0.00 0.00 0.00 50 733.8
20260831160730 16 224 1.6 6.4 0.00 0.00 0.00 52 733.5
20260831160230 16 142 3.2 8.0 0.00 0.00 0.00 50 733.8
20260831155733 15 193 3.2 8.0 0.00 0.00 0.00 51 733.8
20260831155230 15 164 3.2 8.0 0.00 0.00 0.00 52 733.5
20260831154730 15 185 3.2 6.4 0.00 0.00 0.00 52 733.8
20260831154230 15 196 1.6 9.7 0.00 0.00 0.00 51 733.8
20260831153730 15 187 4.8 9.7 0.00 0.00 0.00 50 733.5
20260831153235 15 190 3.2 9.7 0.00 0.00 0.00 51 733.5
20260831152733 15 206 3.2 11.3 0.00 0.00 0.00 54 733.5
20260831152230 15 210 3.2 9.7 0.00 0.00 0.00 52 733.5
20260831151730 14 183 6.4 9.7 0.00 0.00 0.00 54 733.5
20260831151230 14 179 4.8 8.0 0.00 0.00 0.00 54 733.5
20260831150730 14 175 6.4 8.0 0.00 0.00 0.00 55 733.5
20260831150230 14 180 4.8 6.4 0.00 0.00 0.00 55 733.5
20260831145730 14 189 4.8 8.0 0.00 0.00 0.00 54 733.5
20260831145230 15 186 4.8 9.7 0.00 0.00 0.00 55 733.5
20260831144736 14 200 3.2 11.3 0.00 0.00 0.00 54 733.5
20260831144230 14 184 6.4 11.3 0.00 0.00 0.00 53 733.5
20260831143730 14 185 8.0 11.3 0.00 0.00 0.00 54 733.5
20260831143230 14 188 8.0 11.3 0.00 0.00 0.00 54 733.1
20260831142730 14 184 9.7 11.3 0.00 0.00 0.00 54 733.1
20260831142230 14 187 9.7 12.9 0.00 0.00 0.00 56 733.1
20260831141731 13 187 9.7 14.5 0.00 0.00 0.00 55 733.1
20260831141233 13 189 8.0 12.9 0.00 0.00 0.00 57 733.1
20260831140730 13 186 9.7 12.9 0.00 0.00 0.00 57 733.1
20260831140233 13 191 8.0 14.5 0.00 0.00 0.00 57 733.1
20260831135736 13 193 8.0 12.9 0.00 0.00 0.00 57 733.1
20260831135230 13 185 9.7 12.9 0.00 0.00 0.00 57 732.8
20260831134730 13 188 9.7 12.9 0.00 0.00 0.00 57 732.8
20260831134231 13 190 9.7 12.9 0.00 0.00 0.00 57 732.8
20260831133730 13 187 9.7 14.5 0.00 0.00 0.00 57 732.8
20260831133233 13 188 9.7 14.5 0.00 0.00 0.00 57 732.8
20260831132736 13 189 9.7 14.5 0.00 0.00 0.00 57 732.8
20260831132233 13 187 11.3 14.5 0.00 0.00 0.00 58 732.8
20260831131730 13 190 9.7 14.5 0.00 0.00 0.00 58 732.8
20260831131230 13 188 9.7 12.9 0.00 0.00 0.00 58 732.5
20260831130730 13 191 8.0 12.9 0.00 0.00 0.00 58 732.5
20260831130230 13 186 9.7 12.9 0.00 0.00 0.00 59 732.5
20260831125730 13 186 9.7 14.5 0.00 0.00 0.00 59 732.5
20260831125230 13 184 9.7 14.5 0.00 0.00 0.00 59 732.5
20260831124730 13 185 9.7 16.1 0.00 0.00 0.00 59 732.5
20260831124230 13 184 9.7 12.9 0.00 0.00 0.00 60 732.5
20260831123733 13 185 9.7 12.9 0.00 0.00 0.00 60 732.5
20260831123233 13 187 9.7 12.9 0.00 0.00 0.00 60 732.5
20260831122736 13 189 9.7 12.9 0.00 0.00 0.00 60 732.5
20260831122230 13 188 9.7 14.5 0.00 0.00 0.00 60 732.5
20260831121733 13 194 9.7 14.5 0.00 0.00 0.00 60 732.5
20260831121230 13 196 6.4 12.9 0.00 0.00 0.00 60 732.5
20260831120733 13 199 6.4 12.9 0.00 0.00 0.00 60 732.5
20260831120230 13 198 6.4 11.3 0.00 0.00 0.00 61 732.5
20260831115730 13 195 8.0 12.9 0.00 0.00 0.00 61 732.5
20260831115230 13 199 6.4 12.9 0.00 0.00 0.00 61 732.5
20260831114730 13 192 8.0 12.9 0.00 0.00 0.00 61 732.5
20260831114230 13 190 8.0 12.9 0.00 0.00 0.00 61 732.5
20260831113730 13 197 6.4 12.9 0.00 0.00 0.00 60 732.5
20260831113230 13 199 6.4 12.9 0.00 0.00 0.00 61 732.5
20260831112733 13 203 4.8 9.7 0.00 0.00 0.00 61 732.5
20260831112230 13 196 6.4 9.7 0.00 0.00 0.00 60 732.5
20260831111730 13 202 4.8 11.3 0.00 0.00 0.00 60 732.5
20260831111230 13 206 4.8 11.3 0.00 0.00 0.00 60 732.5
20260831110733 13 204 4.8 11.3 0.00 0.00 0.00 60 732.5
20260831110230 13 203 4.8 9.7 0.00 0.00 0.00 60 732.5
20260831105730 13 206 4.8 9.7 0.00 0.00 0.00 60 732.5
20260831105230 13 203 4.8 9.7 0.00 0.00 0.00 60 732.5
20260831104732 13 202 4.8 9.7 0.00 0.00 0.00 59 732.5
20260831104230 13 209 3.2 11.3 0.00 0.00 0.00 58 732.8
20260831103730 13 215 3.2 9.7 0.00 0.00 0.00 58 732.8
20260831103230 13 213 3.2 9.7 0.00 0.00 0.00 57 732.8
20260831102730 13 211 3.2 9.7 0.00 0.00 0.00 58 732.5
20260831102230 14 207 4.8 9.7 0.00 0.00 0.00 57 732.5
20260831101730 14 206 4.8 11.3 0.00 0.00 0.00 57 732.5
20260831101230 14 205 6.4 12.9 0.00 0.00 0.00 57 732.5
20260831100730 13 203 6.4 11.3 0.00 0.00 0.00 57 732.5
20260831100230 13 204 6.4 12.9 0.00 0.00 0.00 59 732.5
20260831095730 13 202 6.4 16.1 0.00 0.00 0.00 61 732.5
20260831095230 13 203 6.4 12.9 0.00 0.00 0.00 61 732.5
20260831094730 13 204 8.0 14.5 0.00 0.00 0.00 61 732.5
20260831094230 13 201 8.0 17.7 0.00 0.00 0.00 61 732.5
20260831093730 13 201 8.0 17.7 0.00 0.00 0.00 62 732.5
20260831093233 13 197 9.7 17.7 0.00 0.00 0.00 62 732.5
20260831092730 13 199 9.7 16.1 0.00 0.00 0.00 62 732.5
20260831092233 13 199 9.7 17.7 0.00 0.00 0.00 62 732.8
20260831091730 13 199 9.7 19.3 0.00 0.00 0.00 62 732.8
20260831091238 13 196 11.3 19.3 0.00 0.00 0.00 63 732.5
20260831090732 13 196 11.3 19.3 0.00 0.00 0.00 63 732.8
20260831090230 13 194 11.3 19.3 0.00 0.00 0.00 63 732.8
20260831085730 13 195 11.3 19.3 0.00 0.00 0.00 63 732.8
20260831085233 13 196 11.3 17.7 0.00 0.00 0.00 63 732.8
20260831084730 13 197 11.3 19.3 0.00 0.00 0.00 63 732.8
20260831084230 13 198 11.3 22.5 0.00 0.00 0.00 64 732.8
20260831083730 13 195 12.9 20.9 0.00 0.00 0.00 64 732.8
20260831083233 13 192 11.3 19.3 0.00 0.00 0.00 64 732.8
20260831082733 13 191 12.9 19.3 0.00 0.00 0.00 64 733.1
20260831082230 13 191 12.9 19.3 0.00 0.00 0.00 64 733.1
20260831081730 13 196 11.3 20.9 0.00 0.00 0.00 64 733.1
20260831081230 13 198 11.3 20.9 0.00 0.00 0.00 64 733.1
20260831080730 13 195 11.3 19.3 0.00 0.00 0.00 64 733.1
20260831080230 13 194 11.3 19.3 0.00 0.00 0.00 63 733.1
20260831075736 13 196 11.3 22.5 0.00 0.00 0.00 63 733.1
20260831075230 13 199 9.7 17.7 0.00 0.00 0.00 63 733.5
20260831074730 13 196 9.7 17.7 0.00 0.00 0.00 63 733.5
20260831074236 13 195 11.3 16.1 0.00 0.00 0.00 63 733.5
20260831073733 13 197 9.7 20.9 0.00 0.00 0.00 63 733.5
20260831073230 13 189 11.3 19.3 0.00 0.00 0.00 63 733.5
20260831072738 13 191 11.3 17.7 0.00 0.00 0.00 63 733.5
20260831072233 13 195 9.7 17.7 0.00 0.00 0.00 63 733.5
20260831071730 13 199 9.7 17.7 0.00 0.00 0.00 63 733.5
20260831071230 13 194 11.3 17.7 0.00 0.00 0.00 64 733.5
20260831070730 13 196 11.3 17.7 0.00 0.00 0.00 63 733.5
20260831070233 13 195 11.3 17.7 0.00 0.00 0.00 64 733.5
20260831065730 13 197 11.3 20.9 0.00 0.00 0.00 64 733.5
20260831065236 13 197 11.3 19.3 0.00 0.00 0.00 64 733.5
20260831064730 13 196 11.3 19.3 0.00 0.00 0.00 64 733.5
20260831064230 13 196 11.3 19.3 0.00 0.00 0.00 64 733.5
20260831063733 13 199 11.3 19.3 0.00 0.00 0.00 63 733.5
20260831063230 13 196 11.3 19.3 0.00 0.00 0.00 64 733.5
20260831062730 13 196 9.7 19.3 0.00 0.00 0.00 64 733.5
20260831062230 13 197 11.3 19.3 0.00 0.00 0.00 63 733.5
20260831061730 13 194 11.3 22.5 0.00 0.00 0.00 63 733.5
20260831061233 13 199 9.7 19.3 0.00 0.00 0.00 63 733.5
20260831060733 13 197 11.3 17.7 0.00 0.00 0.00 63 733.5
20260831060230 13 197 9.7 19.3 0.00 0.00 0.00 63 733.5
20260831055730 13 198 9.7 20.9 0.00 0.00 0.00 63 733.5
20260831055230 13 195 11.3 19.3 0.00 0.00 0.00 63 733.5
20260831054730 13 199 11.3 22.5 0.00 0.00 0.00 63 733.5
20260831054231 13 200 11.3 19.3 0.00 0.00 0.00 63 733.5
20260831053730 13 197 11.3 19.3 0.00 0.00 0.00 63 733.5
20260831053230 13 198 11.3 19.3 0.00 0.00 0.00 63 733.5
20260831052730 13 202 9.7 17.7 0.00 0.00 0.00 63 733.5
20260831052230 13 198 9.7 17.7 0.00 0.00 0.00 63 733.8
20260831051730 13 197 9.7 17.7 0.00 0.00 0.00 63 733.5
20260831051230 13 196 9.7 16.1 0.00 0.00 0.00 62 733.8
20260831050730 14 199 8.0 14.5 0.00 0.00 0.00 62 733.8
20260831050233 14 200 8.0 16.1 0.00 0.00 0.00 62 733.8
20260831045733 14 204 6.4 12.9 0.00 0.00 0.00 62 733.8
20260831045230 14 203 6.4 16.1 0.00 0.00 0.00 62 733.8
20260831044733 14 202 6.4 12.9 0.00 0.00 0.00 61 733.8
20260831044230 14 202 6.4 14.5 0.00 0.00 0.00 61 733.8
20260831043730 14 201 6.4 12.9 0.00 0.00 0.00 60 733.8
20260831043230 14 201 6.4 11.3 0.00 0.00 0.00 58 733.8
20260831042736 14 197 6.4 11.3 0.00 0.00 0.00 56 733.5
20260831042233 15 203 6.4 12.9 0.00 0.00 0.00 55 733.5
20260831041733 15 210 4.8 9.7 0.00 0.00 0.00 55 733.5
20260831041233 15 203 4.8 9.7 0.00 0.00 0.00 54 733.5
20260831040733 15 204 4.8 9.7 0.00 0.00 0.00 53 733.5
20260831040235 15 203 4.8 9.7 0.00 0.00 0.00 53 733.5
20260831035730 15 196 4.8 11.3 0.00 0.00 0.00 53 733.5
20260831035230 15 204 6.4 11.3 0.00 0.00 0.00 52 733.5
20260831034733 15 201 6.4 11.3 0.00 0.00 0.00 52 733.5
20260831034233 15 203 6.4 11.3 0.00 0.00 0.00 51 733.5
20260831033730 15 196 6.4 12.9 0.00 0.00 0.00 51 733.1
20260831033233 15 191 9.7 12.9 0.00 0.00 0.00 53 733.1
20260831032730 15 186 9.7 12.9 0.00 0.00 0.00 52 733.1
20260831032230 15 189 9.7 11.3 0.00 0.00 0.00 51 733.1
20260831031730 15 194 6.4 11.3 0.00 0.00 0.00 50 733.1
20260831031233 15 193 6.4 11.3 0.00 0.00 0.00 50 733.1
20260831030730 15 200 6.4 12.9 0.00 0.00 0.00 51 733.1
20260831030230 15 191 6.4 12.9 0.00 0.00 0.00 52 733.1
20260831025733 15 185 8.0 12.9 0.00 0.00 0.00 51 733.1
20260831025230 15 185 8.0 14.5 0.00 0.00 0.00 51 733.1
20260831024736 15 192 9.7 14.5 0.00 0.00 0.00 51 733.1
20260831024230 15 183 11.3 14.5 0.00 0.00 0.00 57 733.1
20260831023730 15 183 9.7 14.5 0.00 0.00 0.00 61 733.1
20260831023233 15 173 11.3 14.5 0.00 0.00 0.00 59 733.1
20260831022730 15 175 8.0 11.3 0.00 0.00 0.00 65 733.1
20260831022230 15 176 8.0 11.3 0.00 0.00 0.00 64 733.1
20260831021730 15 174 9.7 11.3 0.00 0.00 0.00 64 733.1
20260831021235 15 177 9.7 12.9 0.00 0.00 0.00 66 732.8
20260831020730 15 177 8.0 12.9 0.00 0.00 0.00 66 732.8
20260831020230 15 187 6.4 12.9 0.00 0.00 0.00 66 732.8
20260831015733 15 186 6.4 11.3 0.00 0.00 0.00 65 732.8
20260831015233 15 201 6.4 12.9 0.00 0.00 0.00 64 732.8
20260831014730 15 194 8.0 16.1 0.00 0.00 0.00 63 732.8
20260831014230 15 194 9.7 16.1 0.00 0.00 0.00 62 732.8
20260831013733 16 210 4.8 14.5 0.00 0.00 0.00 59 732.8
20260831013230 16 200 6.4 17.7 0.00 0.00 0.00 57 732.8
20260831012733 16 199 6.4 14.5 0.00 0.00 0.00 59 732.8
20260831012233 16 217 4.8 12.9 0.00 0.00 0.00 60 732.8
20260831011730 16 198 6.4 16.1 0.00 0.00 0.00 57 732.8
20260831011233 16 234 1.6 16.1 0.00 0.00 0.00 61 732.8
20260831010733 16 199 9.7 16.1 0.00 0.00 0.00 56 732.8
20260831010233 17 202 9.7 19.3 0.00 0.00 0.00 59 732.8
20260831005731 17 197 9.7 19.3 0.00 0.00 0.00 60 732.8
20260831005230 17 223 3.2 11.3 0.00 0.00 0.00 64 732.8
20260831004730 17 224 1.6 6.4 0.00 0.00 0.00 68 733.1
20260831004230 17 251 1.6 8.0 0.00 0.00 0.00 65 733.1
20260831003733 17 307 3.2 14.5 0.00 0.00 0.00 68 733.1
20260831003233 17 279 1.6 11.3 0.00 0.00 0.00 75 733.1
20260831002730 17 60 1.6 8.0 0.00 0.00 0.00 81 733.1
20260831002233 17 341 1.6 9.7 0.00 0.00 0.00 89 733.1
20260831001733 16 36 1.6 6.4 0.00 0.00 0.00 90 733.1
20260831001230 17 3 1.6 6.4 0.00 0.00 0.00 88 733.1
20260831000733 16 238 1.6 11.3 0.00 0.00 0.00 95 733.1
20260831000233 15 358 6.4 11.3 0.00 0.00 0.00 93 733.1
20260830235730 15 47 3.2 11.3 0.00 0.00 0.00 100 733.1
20260830235230 15 333 4.8 17.7 0.00 0.00 0.00 100 733.1
20260830234733 16 338 8.0 17.7 0.00 0.00 0.00 91 733.1
20260830234230 17 18 3.2 16.1 0.00 0.00 0.00 84 733.1
20260830233730 17 284 4.8 16.1 0.00 0.00 0.00 72 733.1
20260830233230 18 338 6.4 16.1 0.00 0.00 0.00 65 733.1
20260830232731 19 348 4.8 11.3 0.00 0.00 0.00 61 733.1
20260830232236 19 232 1.6 9.7 0.00 0.00 0.00 61 733.1
20260830231730 19 333 1.6 9.7 0.00 0.00 0.00 60 733.1
20260830231230 19 305 3.2 16.1 0.00 0.00 0.00 64 733.5
20260830230736 19 310 4.8 12.9 0.00 0.00 0.00 63 733.5
20260830230232 19 284 3.2 12.9 0.00 0.00 0.00 60 733.1
20260830225730 18 208 1.6 14.5 0.00 0.00 0.00 61 733.1
20260830225233 18 327 3.2 11.3 0.00 0.00 0.00 62 733.1
20260830224730 18 345 6.4 14.5 0.00 0.00 0.00 65 733.5
20260830224233 18 298 3.2 12.9 0.00 0.00 0.00 63 733.5
20260830223736 17 305 4.8 11.3 0.00 0.00 0.00 70 733.5
20260830223236 16 350 4.8 12.9 0.00 0.00 0.00 73 733.5
20260830222730 17 356 6.4 12.9 0.00 0.00 0.00 70 733.5
20260830222230 17 338 3.2 11.3 0.00 0.00 0.00 71 733.8
20260830221733 17 355 6.4 11.3 0.00 0.00 0.00 71 733.8
20260830221230 16 346 4.8 12.9 0.00 0.00 0.00 73 733.8
20260830220730 16 4 6.4 12.9 0.00 0.00 0.00 72 733.8
20260830220230 17 351 8.0 16.1 0.00 0.00 0.00 69 733.8
20260830215736 17 352 6.4 16.1 0.00 0.00 0.00 70 733.8
20260830215230 18 3 8.0 14.5 0.00 0.00 0.00 68 733.8
20260830214733 17 325 4.8 16.1 0.00 0.00 0.00 68 733.8
20260830214230 18 325 4.8 14.5 0.00 0.00 0.00 66 733.8
20260830213730 19 321 6.4 12.9 0.00 0.00 0.00 65 733.8
20260830213230 19 338 4.8 12.9 0.00 0.00 0.00 64 733.8
20260830212730 19 305 6.4 14.5 0.00 0.00 0.00 64 733.8
20260830212230 18 277 1.6 9.7 0.00 0.00 0.00 64 734.2
20260830211733 19 304 1.6 9.7 0.00 0.00 0.00 62 734.2
20260830211230 19 331 3.2 8.0 0.00 0.00 0.00 62 734.2
20260830210730 19 274 1.6 11.3 0.00 0.00 0.00 61 734.2
20260830210230 19 287 1.6 11.3 0.00 0.00 0.00 59 734.2
20260830205733 18 290 3.2 16.1 0.00 0.00 0.00 61 734.2
20260830205230 18 307 6.4 16.1 0.00 0.00 0.00 61 734.2
20260830204733 18 319 4.8 16.1 0.00 0.00 0.00 60 734.2
20260830204230 18 337 6.4 16.1 0.00 0.00 0.00 64 734.2
20260830203730 18 323 8.0 17.7 0.00 0.00 0.00 65 734.2
20260830203230 18 329 6.4 16.1 0.00 0.00 0.00 57 734.2
20260830202733 19 321 4.8 12.9 0.00 0.00 0.00 56 734.2
20260830202230 19 304 4.8 19.3 0.00 0.00 0.00 57 734.2
20260830201730 19 307 3.2 14.5 0.00 0.00 0.00 59 734.5
20260830201233 19 343 3.2 9.7 0.00 0.00 0.00 58 734.5
20260830200730 18 328 3.2 19.3 0.00 0.00 0.00 57 734.5
20260830200230 18 310 1.6 11.3 0.00 0.00 0.00 58 734.5
20260830195733 19 301 3.2 12.9 0.00 0.00 0.00 56 734.5
20260830195233 18 312 4.8 11.3 0.00 0.00 0.00 55 734.5
20260830194733 18 347 4.8 19.3 0.00 0.00 0.00 56 734.5
20260830194230 18 342 8.0 14.5 0.00 0.00 0.00 57 734.5
20260830193730 18 315 6.4 12.9 0.00 0.00 0.00 60 734.5
20260830193230 18 283 1.6 12.9 0.00 0.00 0.00 57 734.5
20260830192733 18 267 1.6 12.9 0.00 0.00 0.00 57 734.5